Retour au catalogue

NAVSTAR 11

USA 10

ActifNavigationMEO
NORAD 16129·PAYLOAD·🇺🇸 United States

Lancé Oct 9, 1985 depuis Vandenberg Space Force Base

Loading…

Prochains Passages (prochaines 24 heures)

TLE

FraisSource: Space-Track

Époque: Sep 13, 2026, 22:56 UTC

1 16129U 85093A   26256.95568957  .00000001  00000-0  00000-0 0  9990
2 16129  63.6143  82.1667 0345980  56.4363 309.6967  1.89368840230989

Suivez NAVSTAR 11 en temps réel avec AllMySat

Download on the App Store